QPF
0.00 0.00 0.00 0.00 0.00 0.00 0.00 0.00 0.00 0.00 0.00 0.00 0.01 0.01 0.01 0.01 0.02 0.03 0.03 0.02 0.02 0.02 0.02 0.03 0.03 0.04 0.06 0.06 0.05 0.06 0.06 0.09 0.11 0.11 0.08 0.06 0.07 0.09 0.08 0.07 0.08 0.07 0.06 0.05
0.00 0.00 0.00 0.00 0.00 0.00 0.00 0.00 0.00 0.00 0.00 0.01 0.01 0.01 0.01 0.01 0.02 0.03 0.03 0.02 0.02 0.02 0.02 0.02 0.04 0.04 0.06 0.05 0.05 0.05 0.05 0.07 0.10 0.09 0.07 0.07 0.08 0.10 0.08 0.06 0.07 0.05 0.03 0.03
0.00 0.00 0.00 0.00 0.00 0.00 0.00 0.00 0.00 0.01 0.01 0.01 0.01 0.02 0.02 0.03 0.05 0.05 0.04 0.02 0.01 0.01 0.01 0.01 0.02 0.03 0.04 0.05 0.06 0.06 0.06 0.08 0.09 0.08 0.07 0.07 0.09 0.08 0.07 0.06 0.05 0.03 0.02 0.02
0.00 0.00 0.00 0.00 0.01 0.00 0.00 0.00 0.00 0.01 0.01 0.01 0.01 0.02 0.03 0.06 0.08 0.06 0.03 0.02 0.01 0.01 0.01 0.01 0.01 0.02 0.03 0.04 0.04 0.05 0.06 0.06 0.05 0.04 0.04 0.04 0.05 0.06 0.05 0.06 0.05 0.03 0.02 0.03
0.01 0.00 0.01 0.01 0.01 0.01 0.01 0.01 0.01 0.01 0.01 0.01 0.01 0.02 0.04 0.04 0.04 0.03 0.02 0.01 0.01 0.01 0.02 0.01 0.01 0.01 0.02 0.03 0.03 0.03 0.04 0.03 0.03 0.02 0.03 0.03 0.03 0.03 0.03 0.04 0.07 0.07 0.05 0.04
0.01 0.01 0.01 0.01 0.01 0.01 0.01 0.01 0.01 0.01 0.02 0.01 0.02 0.03 0.03 0.04 0.03 0.02 0.02 0.02 0.01 0.01 0.02 0.02 0.01 0.02 0.02 0.02 0.02 0.02 0.04 0.04 0.03 0.03 0.03 0.03 0.02 0.02 0.02 0.02 0.05 0.08 0.10 0.08
0.02 0.02 0.01 0.01 0.01 0.01 0.01 0.01 0.01 0.03 0.05 0.05 0.05 0.05 0.05 0.05 0.04 0.03 0.02 0.02 0.02 0.01 0.01 0.02 0.02 0.02 0.02 0.03 0.02 0.03 0.04 0.05 0.04 0.04 0.04 0.05 0.05 0.04 0.04 0.03 0.03 0.05 0.06 0.08
0.01 0.01 0.01 0.01 0.00 0.01 0.01 0.00 0.01 0.01 0.01 0.02 0.03 0.05 0.05 0.04 0.04 0.04 0.02 0.02 0.03 0.04 0.02 0.02 0.03 0.03 0.03 0.03 0.03 0.03 0.04 0.04 0.03 0.03 0.03 0.04 0.05 0.05 0.05 0.05 0.05 0.05 0.05 0.05
0.02 0.01 0.01 0.01 0.00 0.01 0.01 0.01 0.01 0.02 0.02 0.01 0.01 0.02 0.04 0.05 0.05 0.03 0.01 0.01 0.01 0.01 0.01 0.03 0.05 0.03 0.04 0.04 0.04 0.05 0.06 0.05 0.04 0.03 0.03 0.03 0.03 0.04 0.05 0.04 0.05 0.06 0.05 0.06
0.01 0.01 0.01 0.00 0.00 0.01 0.01 0.01 0.02 0.01 0.00 0.00 0.00 0.01 0.03 0.05 0.07 0.04 0.01 0.00 0.00 0.00 0.00 0.01 0.03 0.04 0.04 0.05 0.06 0.05 0.06 0.05 0.05 0.05 0.04 0.03 0.03 0.04 0.05 0.05 0.05 0.05 0.05 0.04
0.02 0.02 0.02 0.01 0.01 0.01 0.01 0.01 0.01 0.01 0.00 0.00 0.00 0.01 0.02 0.04 0.06 0.07 0.03 0.01 0.00 0.00 0.00 0.01 0.02 0.02 0.04 0.05 0.06 0.07 0.07 0.06 0.06 0.06 0.05 0.04 0.05 0.05 0.06 0.05 0.06 0.07 0.06 0.05
0.01 0.01 0.01 0.01 0.01 0.01 0.01 0.01 0.01 0.00 0.00 0.00 0.00 0.00 0.01 0.04 0.06 0.07 0.06 0.02 0.01 0.01 0.01 0.01 0.01 0.02 0.03 0.04 0.06 0.07 0.07 0.07 0.07 0.07 0.06 0.05 0.04 0.04 0.04 0.05 0.05 0.06 0.07 0.07
0.00 0.00 0.00 0.00 0.01 0.00 0.00 0.00 0.00 0.00 0.00 0.00 0.00 0.00 0.00 0.03 0.03 0.04 0.06 0.05 0.02 0.01 0.01 0.01 0.01 0.02 0.03 0.04 0.05 0.07 0.08 0.08 0.08 0.07 0.07 0.06 0.04 0.03 0.02 0.02 0.02 0.02 0.03 0.04
0.00 0.00 0.00 0.00 0.01 0.01 0.01 0.00 0.00 0.00 0.00 0.00 0.00 0.00 0.00 0.02 0.02 0.03 0.05 0.06 0.02 0.02 0.02 0.02 0.02 0.02 0.02 0.03 0.04 0.05 0.07 0.08 0.08 0.07 0.06 0.04 0.03 0.02 0.02 0.02 0.02 0.02 0.02 0.03
0.01 0.00 0.01 0.01 0.01 0.01 0.01 0.01 0.00 0.00 0.00 0.00 0.00 0.00 0.00 0.01 0.02 0.02 0.03 0.05 0.04 0.03 0.02 0.03 0.02 0.02 0.03 0.04 0.04 0.04 0.04 0.04 0.05 0.05 0.05 0.04 0.03 0.02 0.02 0.02 0.03 0.02 0.02 0.03
0.01 0.01 0.01 0.01 0.01 0.01 0.01 0.01 0.00 0.00 0.00 0.00 0.00 0.00 0.00 0.01 0.01 0.01 0.03 0.05 0.05 0.05 0.04 0.03 0.02 0.02 0.03 0.05 0.06 0.05 0.04 0.04 0.04 0.05 0.06 0.05 0.03 0.03 0.03 0.03 0.04 0.04 0.03 0.03
0.02 0.02 0.02 0.02 0.01 0.01 0.01 0.00 0.00 0.00 0.00 0.00 0.00 0.00 0.00 0.01 0.01 0.01 0.02 0.03 0.04 0.05 0.05 0.05 0.04 0.04 0.02 0.03 0.03 0.04 0.03 0.03 0.04 0.05 0.07 0.06 0.05 0.05 0.04 0.04 0.05 0.06 0.05 0.06
0.02 0.02 0.02 0.02 0.02 0.02 0.01 0.01 0.00 0.00 0.00 0.00 0.00 0.00 0.01 0.01 0.01 0.01 0.01 0.01 0.03 0.04 0.04 0.05 0.04 0.04 0.03 0.03 0.04 0.05 0.05 0.03 0.03 0.05 0.09 0.10 0.08 0.08 0.06 0.06 0.07 0.06 0.05 0.05
0.02 0.02 0.02 0.02 0.02 0.02 0.02 0.01 0.01 0.00 0.00 0.00 0.00 0.01 0.01 0.01 0.01 0.01 0.01 0.01 0.01 0.02 0.02 0.02 0.03 0.03 0.03 0.05 0.08 0.08 0.06 0.05 0.04 0.05 0.11 0.13 0.09 0.08 0.08 0.08 0.08 0.06 0.06 0.04
0.02 0.02 0.01 0.01 0.01 0.01 0.01 0.01 0.01 0.00 0.00 0.00 0.01 0.01 0.01 0.01 0.01 0.01 0.01 0.01 0.01 0.01 0.01 0.02 0.02 0.03 0.04 0.05 0.07 0.07 0.06 0.05 0.05 0.05 0.07 0.09 0.08 0.07 0.07 0.07 0.06 0.05 0.05 0.05
0.02 0.02 0.01 0.01 0.00 0.00 0.00 0.00 0.00 0.00 0.01 0.01 0.01 0.02 0.01 0.01 0.01 0.01 0.01 0.01 0.01 0.01 0.01 0.01 0.02 0.03 0.05 0.05 0.05 0.06 0.06 0.05 0.04 0.04 0.06 0.07 0.06 0.07 0.08 0.07 0.06 0.05 0.04 0.03
0.02 0.02 0.02 0.01 0.00 0.00 0.00 0.00 0.00 0.00 0.01 0.01 0.01 0.02 0.01 0.01 0.01 0.01 0.01 0.01 0.01 0.01 0.01 0.01 0.01 0.02 0.04 0.03 0.03 0.05 0.06 0.05 0.04 0.05 0.05 0.05 0.04 0.05 0.06 0.06 0.05 0.05 0.04 0.03
0.01 0.02 0.01 0.01 0.01 0.00 0.00 0.00 0.00 0.00 0.01 0.01 0.01 0.02 0.02 0.01 0.01 0.01 0.01 0.01 0.01 0.01 0.01 0.01 0.01 0.02 0.04 0.04 0.04 0.05 0.05 0.05 0.05 0.05 0.05 0.03 0.02 0.03 0.03 0.03 0.03 0.03 0.03 0.03
0.02 0.01 0.01 0.01 0.01 0.01 0.00 0.00 0.01 0.00 0.00 0.01 0.01 0.01 0.02 0.02 0.01 0.01 0.01 0.02 0.02 0.02 0.02 0.02 0.03 0.04 0.05 0.04 0.04 0.05 0.05 0.06 0.05 0.06 0.05 0.04 0.02 0.02 0.02 0.01 0.01 0.01 0.01 0.01
0.02 0.02 0.02 0.02 0.01 0.01 0.00 0.00 0.00 0.00 0.00 0.01 0.01 0.01 0.01 0.01 0.01 0.02 0.02 0.02 0.02 0.01 0.01 0.02 0.03 0.03 0.03 0.02 0.03 0.04 0.05 0.05 0.05 0.04 0.04 0.04 0.04 0.03 0.02 0.01 0.01 0.01 0.01 0.01
0.03 0.03 0.03 0.03 0.02 0.01 0.01 0.00 0.00 0.01 0.01 0.01 0.01 0.01 0.01 0.01 0.01 0.01 0.02 0.01 0.01 0.01 0.01 0.01 0.02 0.02 0.02 0.02 0.02 0.02 0.03 0.03 0.04 0.03 0.02 0.03 0.04 0.03 0.03 0.02 0.01 0.01 0.01 0.01
0.06 0.05 0.04 0.03 0.02 0.01 0.01 0.01 0.01 0.02 0.01 0.01 0.01 0.02 0.01 0.01 0.01 0.01 0.02 0.02 0.01 0.01 0.01 0.01 0.01 0.01 0.01 0.02 0.02 0.02 0.02 0.02 0.02 0.02 0.02 0.02 0.03 0.02 0.03 0.02 0.02 0.02 0.01 0.01
MSLP
1015.99 1016.20 1016.31 1016.33 1016.26 1016.10 1015.85 1015.51 1015.06 1014.52 1013.91 1013.26 1012.60 1011.98 1011.42 1010.95 1010.58 1010.30 1010.09 1009.93 1009.79 1009.65 1009.49 1009.34 1009.21 1009.12 1009.14 1009.28 1009.58 1010.03 1010.63 1011.33 1012.10 1012.88 1013.62 1014.26 1014.79 1015.19 1015.48 1015.67 1015.79 1015.89 1015.99 1016.11
1016.09 1016.19 1016.13 1015.93 1015.61 1015.21 1014.74 1014.23 1013.68 1013.13 1012.57 1012.03 1011.52 1011.06 1010.65 1010.29 1009.99 1009.73 1009.50 1009.29 1009.07 1008.86 1008.64 1008.45 1008.30 1008.22 1008.26 1008.43 1008.77 1009.27 1009.90 1010.65 1011.47 1012.31 1013.11 1013.84 1014.46 1014.95 1015.33 1015.60 1015.79 1015.94 1016.06 1016.18
1016.03 1016.02 1015.80 1015.41 1014.89 1014.28 1013.63 1012.99 1012.37 1011.79 1011.27 1010.81 1010.40 1010.04 1009.71 1009.42 1009.15 1008.88 1008.62 1008.36 1008.10 1007.84 1007.61 1007.42 1007.29 1007.25 1007.33 1007.55 1007.93 1008.45 1009.11 1009.88 1010.73 1011.60 1012.46 1013.27 1013.99 1014.60 1015.09 1015.47 1015.76 1015.98 1016.15 1016.30
1015.75 1015.63 1015.27 1014.73 1014.05 1013.30 1012.53 1011.80 1011.13 1010.54 1010.04 1009.61 1009.25 1008.93 1008.63 1008.35 1008.06 1007.76 1007.46 1007.17 1006.89 1006.63 1006.43 1006.28 1006.22 1006.25 1006.40 1006.68 1007.09 1007.63 1008.30 1009.07 1009.91 1010.81 1011.71 1012.59 1013.40 1014.13 1014.75 1015.27 1015.68 1015.99 1016.23 1016.42
1015.17 1014.94 1014.47 1013.82 1013.05 1012.22 1011.40 1010.64 1009.95 1009.37 1008.88 1008.46 1008.10 1007.77 1007.45 1007.12 1006.78 1006.43 1006.10 1005.78 1005.51 1005.30 1005.16 1005.11 1005.15 1005.28 1005.51 1005.85 1006.30 1006.85 1007.50 1008.25 1009.08 1009.97 1010.90 1011.84 1012.74 1013.59 1014.35 1015.00 1015.53 1015.95 1016.27 1016.49
1014.28 1013.93 1013.38 1012.67 1011.87 1011.03 1010.22 1009.48 1008.82 1008.26 1007.79 1007.37 1006.98 1006.61 1006.22 1005.82 1005.41 1005.00 1004.63 1004.31 1004.07 1003.93 1003.89 1003.95 1004.12 1004.37 1004.70 1005.11 1005.59 1006.14 1006.78 1007.49 1008.29 1009.17 1010.11 1011.08 1012.06 1013.01 1013.88 1014.66 1015.31 1015.83 1016.22 1016.48
1013.09 1012.63 1012.02 1011.30 1010.52 1009.73 1008.99 1008.32 1007.74 1007.23 1006.77 1006.35 1005.93 1005.49 1005.03 1004.54 1004.05 1003.59 1003.18 1002.87 1002.68 1002.62 1002.70 1002.89 1003.19 1003.56 1003.99 1004.47 1004.99 1005.55 1006.16 1006.84 1007.60 1008.45 1009.38 1010.38 1011.41 1012.43 1013.40 1014.28 1015.03 1015.63 1016.07 1016.37
1011.67 1011.13 1010.49 1009.79 1009.07 1008.39 1007.76 1007.20 1006.71 1006.28 1005.86 1005.44 1004.99 1004.49 1003.94 1003.37 1002.81 1002.29 1001.86 1001.57 1001.43 1001.46 1001.65 1001.97 1002.40 1002.89 1003.42 1003.96 1004.51 1005.07 1005.67 1006.31 1007.04 1007.86 1008.78 1009.78 1010.84 1011.91 1012.94 1013.88 1014.70 1015.35 1015.83 1016.15
1010.15 1009.54 1008.89 1008.25 1007.63 1007.07 1006.58 1006.16 1005.79 1005.44 1005.08 1004.67 1004.19 1003.64 1003.03 1002.39 1001.76 1001.20 1000.76 1000.49 1000.40 1000.51 1000.80 1001.23 1001.77 1002.36 1002.98 1003.58 1004.16 1004.73 1005.31 1005.93 1006.63 1007.42 1008.32 1009.32 1010.38 1011.47 1012.53 1013.51 1014.35 1015.04 1015.54 1015.87
1008.64 1008.00 1007.38 1006.81 1006.30 1005.88 1005.54 1005.26 1005.00 1004.74 1004.43 1004.04 1003.55 1002.96 1002.30 1001.61 1000.95 1000.36 999.92 999.67 999.63 999.80 1000.16 1000.68 1001.30 1001.97 1002.64 1003.29 1003.90 1004.48 1005.06 1005.67 1006.35 1007.12 1008.01 1008.99 1010.05 1011.13 1012.20 1013.18 1014.03 1014.72 1015.23 1015.56
1007.25 1006.62 1006.05 1005.56 1005.17 1004.89 1004.68 1004.52 1004.37 1004.18 1003.92 1003.55 1003.06 1002.45 1001.76 1001.05 1000.36 999.77 999.33 999.09 999.08 999.30 999.71 1000.28 1000.94 1001.65 1002.37 1003.04 1003.68 1004.28 1004.87 1005.49 1006.17 1006.93 1007.80 1008.78 1009.82 1010.89 1011.94 1012.91 1013.75 1014.43 1014.94 1015.28
1006.04 1005.45 1004.95 1004.55 1004.27 1004.10 1004.00 1003.94 1003.87 1003.74 1003.51 1003.16 1002.67 1002.06 1001.37 1000.65 999.96 999.38 998.95 998.73 998.74 998.96 999.39 999.97 1000.65 1001.37 1002.09 1002.79 1003.44 1004.06 1004.67 1005.31 1006.00 1006.78 1007.65 1008.62 1009.65 1010.70 1011.73 1012.68 1013.51 1014.18 1014.70 1015.06
1005.00 1004.47 1004.05 1003.75 1003.57 1003.48 1003.47 1003.47 1003.45 1003.35 1003.15 1002.82 1002.34 1001.74 1001.07 1000.36 999.69 999.12 998.71 998.50 998.50 998.73 999.13 999.69 1000.35 1001.05 1001.77 1002.46 1003.12 1003.76 1004.40 1005.07 1005.79 1006.60 1007.49 1008.46 1009.48 1010.52 1011.53 1012.46 1013.28 1013.97 1014.50 1014.89
1004.07 1003.63 1003.30 1003.08 1002.98 1002.96 1002.99 1003.03 1003.04 1002.97 1002.79 1002.47 1002.01 1001.44 1000.80 1000.13 999.49 998.95 998.55 998.34 998.34 998.52 998.89 999.40 1000.01 1000.67 1001.35 1002.03 1002.69 1003.35 1004.02 1004.73 1005.49 1006.33 1007.25 1008.24 1009.26 1010.30 1011.30 1012.23 1013.06 1013.76 1014.32 1014.77
1003.18 1002.83 1002.59 1002.45 1002.41 1002.44 1002.51 1002.58 1002.60 1002.55 1002.38 1002.09 1001.67 1001.15 1000.55 999.93 999.34 998.83 998.45 998.23 998.20 998.34 998.64 999.08 999.61 1000.21 1000.84 1001.49 1002.15 1002.83 1003.53 1004.28 1005.09 1005.97 1006.92 1007.93 1008.97 1010.01 1011.02 1011.96 1012.80 1013.53 1014.15 1014.67
1002.29 1002.03 1001.86 1001.78 1001.79 1001.86 1001.96 1002.05 1002.10 1002.07 1001.94 1001.70 1001.33 1000.87 1000.34 999.78 999.24 998.77 998.40 998.17 998.09 998.17 998.39 998.74 999.19 999.71 1000.29 1000.90 1001.55 1002.23 1002.96 1003.75 1004.60 1005.52 1006.51 1007.55 1008.60 1009.66 1010.68 1011.63 1012.50 1013.28 1013.97 1014.57
1001.38 1001.18 1001.07 1001.04 1001.09 1001.20 1001.33 1001.46 1001.55 1001.56 1001.49 1001.31 1001.03 1000.64 1000.19 999.71 999.22 998.78 998.42 998.17 998.05 998.06 998.19 998.45 998.81 999.25 999.76 1000.33 1000.96 1001.65 1002.40 1003.22 1004.11 1005.06 1006.08 1007.13 1008.21 1009.27 1010.31 1011.28 1012.19 1013.02 1013.77 1014.47
1000.47 1000.31 1000.23 1000.25 1000.33 1000.48 1000.66 1000.84 1000.99 1001.08 1001.08 1001.00 1000.80 1000.52 1000.16 999.75 999.32 998.91 998.56 998.28 998.11 998.05 998.10 998.26 998.53 998.89 999.34 999.87 1000.48 1001.17 1001.93 1002.77 1003.69 1004.67 1005.70 1006.77 1007.85 1008.92 1009.96 1010.96 1011.90 1012.78 1013.60 1014.38
999.63 999.47 999.42 999.45 999.58 999.77 1000.00 1000.25 1000.48 1000.67 1000.78 1000.80 1000.71 1000.53 1000.26 999.93 999.56 999.18 998.83 998.53 998.31 998.18 998.15 998.24 998.43 998.72 999.12 999.62 1000.21 1000.89 1001.66 1002.51 1003.43 1004.42 1005.46 1006.52 1007.60 1008.66 1009.71 1010.71 1011.68 1012.60 1013.48 1014.33
998.90 998.74 998.68 998.73 998.89 999.13 999.43 999.76 1000.09 1000.38 1000.60 1000.73 1000.76 1000.68 1000.51 1000.25 999.93 999.58 999.23 998.91 998.64 998.46 998.38 998.40 998.53 998.78 999.14 999.62 1000.20 1000.87 1001.64 1002.49 1003.41 1004.39 1005.41 1006.46 1007.51 1008.56 1009.59 1010.60 1011.58 1012.53 1013.45 1014.36
998.33 998.14 998.07 998.14 998.32 998.61 998.98 999.39 999.82 1000.21 1000.55 1000.79 1000.93 1000.95 1000.85 1000.65 1000.38 1000.05 999.71 999.37 999.09 998.87 998.75 998.74 998.84 999.06 999.41 999.87 1000.44 1001.12 1001.88 1002.72 1003.63 1004.59 1005.58 1006.59 1007.62 1008.64 1009.65 1010.64 1011.62 1012.59 1013.55 1014.50
997.92 997.70 997.63 997.70 997.91 998.24 998.67 999.16 999.67 1000.15 1000.59 1000.93 1001.15 1001.25 1001.22 1001.08 1000.84 1000.55 1000.21 999.88 999.59 999.37 999.23 999.21 999.31 999.53 999.88 1000.35 1000.93 1001.60 1002.36 1003.18 1004.07 1004.99 1005.95 1006.92 1007.90 1008.89 1009.87 1010.85 1011.82 1012.79 1013.76 1014.74
997.63 997.40 997.32 997.40 997.63 998.00 998.48 999.03 999.60 1000.16 1000.67 1001.08 1001.37 1001.53 1001.56 1001.46 1001.27 1000.99 1000.69 1000.38 1000.10 999.90 999.78 999.78 999.90 1000.14 1000.51 1000.99 1001.58 1002.26 1003.01 1003.82 1004.67 1005.56 1006.47 1007.40 1008.34 1009.28 1010.23 1011.19 1012.15 1013.12 1014.09 1015.08
997.45 997.21 997.14 997.23 997.48 997.88 998.39 998.97 999.59 1000.19 1000.74 1001.20 1001.54 1001.74 1001.81 1001.76 1001.60 1001.37 1001.10 1000.83 1000.60 1000.43 1000.36 1000.40 1000.56 1000.84 1001.24 1001.75 1002.35 1003.03 1003.78 1004.56 1005.39 1006.24 1007.10 1007.99 1008.88 1009.78 1010.70 1011.63 1012.58 1013.53 1014.51 1015.49
997.34 997.13 997.07 997.17 997.44 997.85 998.37 998.97 999.60 1000.22 1000.79 1001.28 1001.64 1001.88 1001.98 1001.97 1001.86 1001.68 1001.46 1001.25 1001.08 1000.98 1000.97 1001.06 1001.28 1001.61 1002.05 1002.58 1003.20 1003.88 1004.61 1005.38 1006.17 1006.97 1007.80 1008.63 1009.48 1010.35 1011.23 1012.14 1013.07 1014.01 1014.97 1015.94
997.35 997.16 997.12 997.24 997.51 997.92 998.44 999.03 999.65 1000.27 1000.84 1001.33 1001.71 1001.97 1002.11 1002.14 1002.08 1001.96 1001.82 1001.68 1001.58 1001.55 1001.62 1001.78 1002.06 1002.43 1002.91 1003.47 1004.10 1004.78 1005.49 1006.23 1006.98 1007.75 1008.53 1009.32 1010.13 1010.96 1011.81 1012.69 1013.60 1014.52 1015.46 1016.41
997.51 997.36 997.34 997.47 997.73 998.12 998.62 999.18 999.77 1000.37 1000.92 1001.40 1001.79 1002.07 1002.25 1002.33 1002.33 1002.29 1002.22 1002.17 1002.16 1002.21 1002.35 1002.59 1002.91 1003.34 1003.84 1004.42 1005.05 1005.71 1006.40 1007.11 1007.83 1008.56 1009.29 1010.04 1010.81 1011.61 1012.43 1013.27 1014.15 1015.05 1015.96 1016.87
Thickness
5673 5679 5678 5674 5674 5674 5668 5664 5658 5663 5664 5669 5671 5672 5672 5672 5671 5670 5669 5667 5666 5666 5666 5667 5668 5669 5669 5669 5668 5668 5667 5666 5666 5666 5665 5664 5664 5663 5662 5661 5661 5660 5660 5660
5665 5670 5669 5664 5667 5668 5666 5663 5659 5660 5660 5667 5667 5666 5665 5663 5662 5660 5660 5659 5658 5657 5657 5658 5660 5660 5660 5661 5660 5659 5658 5658 5658 5657 5656 5654 5654 5654 5653 5653 5653 5653 5652 5653
5646 5656 5659 5649 5658 5660 5657 5657 5655 5651 5655 5659 5657 5656 5655 5655 5654 5652 5651 5650 5649 5649 5648 5649 5650 5651 5651 5652 5652 5651 5650 5649 5649 5648 5647 5645 5646 5645 5645 5645 5645 5645 5645 5646
5634 5643 5636 5647 5659 5658 5652 5652 5652 5651 5651 5651 5649 5648 5648 5647 5644 5643 5643 5642 5641 5640 5640 5640 5641 5642 5642 5642 5642 5642 5642 5641 5641 5640 5639 5638 5638 5637 5637 5637 5638 5638 5639 5639
5622 5625 5631 5644 5653 5651 5645 5642 5648 5645 5645 5644 5643 5641 5638 5639 5637 5635 5634 5634 5633 5632 5632 5632 5633 5633 5633 5633 5634 5634 5634 5634 5633 5632 5631 5630 5629 5629 5630 5629 5630 5631 5632 5633
5618 5621 5621 5638 5650 5652 5644 5633 5643 5641 5638 5636 5634 5624 5626 5632 5630 5628 5627 5626 5625 5625 5625 5624 5624 5624 5624 5625 5625 5626 5627 5627 5626 5625 5624 5623 5622 5622 5622 5622 5623 5624 5625 5626
5615 5615 5622 5639 5645 5644 5627 5627 5638 5636 5633 5629 5624 5622 5623 5623 5621 5621 5620 5619 5618 5617 5617 5617 5617 5616 5616 5617 5619 5621 5621 5620 5619 5618 5617 5616 5616 5615 5614 5614 5614 5616 5617 5618
5609 5609 5616 5637 5637 5631 5629 5633 5633 5631 5628 5624 5620 5619 5617 5615 5613 5612 5611 5611 5611 5609 5609 5609 5610 5609 5610 5611 5614 5614 5614 5613 5613 5611 5610 5611 5609 5609 5608 5606 5606 5607 5608 5609
5613 5617 5626 5630 5631 5632 5630 5628 5627 5625 5623 5619 5615 5613 5611 5608 5606 5605 5604 5604 5603 5602 5601 5602 5602 5602 5602 5605 5606 5606 5606 5606 5605 5604 5603 5603 5602 5601 5600 5600 5599 5599 5600 5601
5612 5618 5622 5624 5626 5627 5626 5624 5623 5621 5618 5615 5610 5607 5605 5602 5600 5599 5598 5597 5596 5595 5595 5596 5596 5596 5597 5598 5598 5598 5598 5598 5598 5597 5595 5595 5595 5594 5593 5593 5593 5593 5594 5595
5608 5613 5617 5621 5621 5621 5620 5620 5618 5615 5613 5609 5606 5602 5599 5596 5594 5593 5592 5591 5591 5590 5589 5589 5590 5591 5592 5592 5592 5591 5592 5591 5591 5590 5588 5587 5588 5588 5588 5588 5588 5587 5589 5589
5606 5611 5609 5612 5616 5616 5614 5612 5611 5608 5606 5604 5601 5597 5595 5591 5589 5588 5586 5585 5585 5585 5585 5584 5584 5585 5586 5587 5586 5585 5585 5584 5583 5581 5580 5579 5579 5579 5580 5580 5580 5581 5582 5582
5611 5612 5609 5610 5611 5610 5608 5606 5605 5602 5599 5596 5594 5592 5590 5587 5585 5583 5582 5581 5581 5581 5581 5580 5580 5580 5581 5581 5581 5580 5579 5578 5576 5575 5574 5573 5573 5573 5573 5573 5573 5574 5575 5576
5608 5607 5604 5605 5604 5604 5602 5601 5598 5595 5593 5590 5588 5586 5584 5582 5580 5578 5577 5577 5577 5577 5577 5576 5576 5576 5577 5576 5576 5575 5573 5572 5570 5569 5568 5568 5568 5568 5568 5567 5567 5568 5569 5569
5605 5604 5601 5600 5598 5597 5596 5594 5590 5587 5585 5584 5582 5580 5578 5576 5574 5573 5574 5574 5573 5573 5573 5572 5572 5572 5572 5571 5570 5569 5568 5566 5565 5564 5563 5563 5563 5563 5563 5562 5562 5562 5562 5563
5600 5598 5596 5594 5593 5591 5589 5587 5584 5581 5580 5578 5575 5574 5572 5571 5569 5568 5568 5568 5567 5567 5567 5567 5566 5567 5566 5565 5564 5563 5562 5562 5561 5560 5559 5559 5558 5558 5557 5557 5557 5557 5557 5558
5594 5592 5590 5589 5588 5587 5585 5583 5580 5578 5575 5573 5571 5570 5568 5566 5564 5564 5563 5562 5561 5561 5562 5561 5561 5562 5561 5560 5559 5558 5557 5556 5556 5555 5555 5554 5554 5553 5553 5552 5552 5552 5552 5552
5595 5594 5591 5589 5586 5584 5582 5580 5577 5574 5572 5571 5568 5565 5563 5561 5559 5559 5558 5556 5556 5556 5556 5556 5556 5556 5555 5554 5553 5552 5551 5550 5550 5551 5550 5550 5549 5549 5548 5547 5547 5547 5546 5546
5591 5589 5587 5586 5584 5581 5578 5576 5573 5571 5569 5566 5563 5561 5558 5556 5555 5554 5552 5551 5551 5550 5551 5551 5551 5550 5550 5549 5548 5547 5547 5546 5546 5545 5544 5543 5543 5543 5543 5542 5542 5541 5541 5541
5586 5584 5582 5581 5579 5576 5573 5572 5569 5566 5564 5562 5559 5556 5553 5552 5551 5549 5547 5546 5546 5547 5547 5547 5547 5546 5546 5545 5544 5543 5542 5542 5541 5540 5539 5538 5538 5538 5538 5539 5538 5537 5536 5535
5579 5577 5576 5574 5572 5570 5568 5567 5564 5562 5560 5557 5554 5552 5549 5547 5546 5544 5543 5543 5544 5543 5543 5543 5543 5542 5542 5541 5540 5539 5538 5537 5536 5535 5534 5534 5534 5534 5534 5533 5533 5531 5530 5529
5572 5570 5569 5567 5565 5562 5561 5560 5558 5557 5555 5552 5550 5548 5545 5543 5542 5540 5540 5539 5540 5540 5539 5539 5539 5538 5537 5536 5536 5535 5534 5533 5532 5531 5530 5530 5529 5529 5529 5528 5527 5526 5525 5524
5565 5564 5561 5560 5558 5556 5555 5553 5552 5551 5549 5547 5545 5543 5541 5540 5538 5536 5537 5538 5537 5537 5536 5536 5535 5534 5533 5532 5531 5530 5529 5528 5527 5527 5526 5525 5524 5524 5523 5522 5522 5521 5520 5519
5558 5557 5555 5553 5551 5549 5548 5547 5546 5545 5544 5543 5541 5540 5538 5536 5535 5535 5534 5535 5535 5535 5534 5533 5532 5530 5529 5528 5527 5526 5525 5524 5523 5522 5522 5521 5521 5519 5518 5517 5517 5516 5515 5515
5552 5551 5550 5548 5546 5545 5543 5542 5540 5539 5538 5537 5537 5536 5534 5533 5532 5533 5532 5532 5532 5532 5531 5530 5528 5527 5526 5525 5523 5522 5521 5520 5519 5518 5518 5517 5516 5515 5514 5513 5513 5512 5511 5511
5547 5546 5544 5543 5542 5540 5538 5537 5535 5534 5534 5533 5532 5532 5532 5531 5530 5530 5529 5529 5529 5528 5527 5526 5525 5523 5522 5521 5520 5518 5517 5517 5516 5514 5513 5512 5511 5511 5510 5510 5509 5508 5507 5507
5542 5540 5538 5538 5537 5536 5535 5533 5532 5532 5531 5530 5529 5529 5529 5528 5527 5527 5526 5525 5524 5524 5523 5522 5521 5520 5519 5517 5516 5515 5513 5513 5512 5510 5509 5508 5507 5506 5505 5505 5504 5504 5503 5503